(295353) = 2006 UE164 = 2008 HN33

Discovered at Kitt Peak on 2008-04-25 by Spacewatch.

Orbit

Orbit type: Main Belt

Note: WebGL enabled browser required.

epoch2023-09-13.0
epoch JD2460200.5
perihelion date2021-08-29.53604
perihelion JD2459456.03604
argument of perihelion (°)314.30751
ascending node (°)189.58887
inclination (°)8.28638
eccentricity0.1955482
perihelion distance (AU)1.8507641
Tisserand w.r.t. Jupiter3.6
ΔV w.r.t. Earth (km/sec)8.8
semimajor axis (AU)2.3006526
mean anomaly (°)210.26692
mean daily motion (°/day)0.28244070
aphelion distance (AU)2.751
period (years)3.49
P-vector [x]-0.80670822
P-vector [y]0.57488931
P-vector [z]0.13683615
Q-vector [x]-0.59046210
Q-vector [y]-0.77472910
Q-vector [z]-0.22616217
absolute magnitude17.48
phase slope0.15
uncertainty0
referenceMPEC 2024-A151
observations used305
oppositions13
arc length (days)7181
first opposition used2004
last opposition used2023
residual rms (arc-secs)0.76
perturbers coarse indicatorM-v
perturbers precise indicator003Ek
first observation date used2004-02-18.0
last observation date used2023-10-17.0
computer nameMPCLINUX
JD of orbit computation2456639.522095
perihelion JD uncertainty (days)8.2544E-05
argument of perihelion uncertainty (°)5.1346E-05
ascending node uncertainty (°)4.6821E-05
inclination uncertainty (°)7.9706E-06
eccentricity uncertainty 5.2365E-08
perihelion distance uncertainty (AU)1.3249E-07
Minimum Orbit Intersection Distances (in AU)
for orbit epoch: 2460200.5, reference: E2024-AF1
Mercury1.50266
Venus1.14632
Earth0.87135
Mars0.25883
Jupiter2.28854
Saturn6.84999
Uranus16.5511
Neptune27.2435

Observations

315 total observations over interval: 2004 02 18.23863 – 2023 10 17.258541
These data are available for download (format description).

Date (UT) J2000 RA J2000 Dec Magn Location Ref
2004 02 18.23863 07 45 17.81 +07 30 59.6 20.1   704 – Lincoln Laboratory ETS, New Mexico MPS 252091
2004 02 18.25032 07 45 17.47 +07 31 05.6 19.7   704 – Lincoln Laboratory ETS, New Mexico MPS 252091
2004 02 18.26324 07 45 17.21 +07 31 12.6 19.4   704 – Lincoln Laboratory ETS, New Mexico MPS 252091
2004 02 18.27500 07 45 16.86 +07 31 19.4 19.6   704 – Lincoln Laboratory ETS, New Mexico MPS 252091
2006 10 21.29296 02 07 34.46 +07 36 21.2 20.1 V G96 – Mt. Lemmon Survey MPS 184380
2006 10 21.29813 02 07 34.17 +07 36 18.1 20.3 V G96 – Mt. Lemmon Survey MPS 184380
2006 10 21.30329 02 07 33.85 +07 36 15.5 20.4 V G96 – Mt. Lemmon Survey MPS 184380
2006 10 21.30844 02 07 33.56 +07 36 12.6 20.4 V G96 – Mt. Lemmon Survey MPS 184380
2006 10 22.21096 02 06 43.03 +07 27 59.6 20.5 V 691 – Steward Observatory, Kitt Peak-Spacewatch MPS 184380
2006 10 22.22832 02 06 42.03 +07 27 50.1 20.7 V 691 – Steward Observatory, Kitt Peak-Spacewatch MPS 184380
2006 10 22.24567 02 06 41.01 +07 27 40.7 20.5 V 691 – Steward Observatory, Kitt Peak-Spacewatch MPS 184380
2006 10 31.18996 01 58 10.05 +06 07 29.1 20.2 V G96 – Mt. Lemmon Survey MPS 251037
2006 10 31.19759 01 58 09.62 +06 07 25.2 20.3 V G96 – Mt. Lemmon Survey MPS 251037
2006 10 31.20525 01 58 09.15 +06 07 21.2 20.0 V G96 – Mt. Lemmon Survey MPS 251037
2006 10 31.21299 01 58 08.68 +06 07 17.1 20.2 V G96 – Mt. Lemmon Survey MPS 251037
2008 04 25.26641 16 03 05.50 -11 12 25.7 20.8 V 691 – Steward Observatory, Kitt Peak-Spacewatch MPS 248261
2008 04 25.28400 16 03 04.71 -11 12 17.9 20.8 V 691 – Steward Observatory, Kitt Peak-Spacewatch MPS 248261
2008 04 25.30160 16 03 03.88 -11 12 09.6 20.6 V 691 – Steward Observatory, Kitt Peak-Spacewatch MPS 248261
2008 05 01.27184 15 58 20.78 -10 25 51.8 20.4 V 691 – Steward Observatory, Kitt Peak-Spacewatch MPS 248261
2008 05 01.28946 15 58 19.79 -10 25 42.9 20.3 V 691 – Steward Observatory, Kitt Peak-Spacewatch MPS 248261
2008 05 01.31002 15 58 18.74 -10 25 34.2 20.2 V 691 – Steward Observatory, Kitt Peak-Spacewatch MPS 248261
2008 05 13.30536 15 47 04.95 -08 58 36.0 19.7 V G96 – Mt. Lemmon Survey MPS 251037
2008 05 13.31200 15 47 04.48 -08 58 33.2 20.0 V G96 – Mt. Lemmon Survey MPS 251037
2008 05 13.31858 15 47 04.09 -08 58 30.5 19.9 V G96 – Mt. Lemmon Survey MPS 251037
2008 05 13.32550 15 47 03.66 -08 58 27.4 20.3 V G96 – Mt. Lemmon Survey MPS 251037
2008 05 29.16999 15 32 05.03 -07 32 47.2 20.1 V 691 – Steward Observatory, Kitt Peak-Spacewatch MPS 251037
2008 05 29.18756 15 32 04.00 -07 32 42.0 20.2 V 691 – Steward Observatory, Kitt Peak-Spacewatch MPS 251037
2008 05 29.20514 15 32 03.09 -07 32 39.1 20.7 V 691 – Steward Observatory, Kitt Peak-Spacewatch MPS 251037
2008 05 29.29736 15 31 58.15 -07 32 17.6 20.1 V G96 – Mt. Lemmon Survey MPS 251037
2008 05 29.30368 15 31 57.75 -07 32 16.0 19.5 V G96 – Mt. Lemmon Survey MPS 251037
2008 05 29.31008 15 31 57.50 -07 32 14.8 19.5 V G96 – Mt. Lemmon Survey MPS 251037
2008 06 02.16883 15 28 48.25 -07 18 31.1   691 – Steward Observatory, Kitt Peak-Spacewatch MPS 251037
2008 06 02.18646 15 28 47.38 -07 18 27.8   691 – Steward Observatory, Kitt Peak-Spacewatch MPS 251037
2008 06 02.20703 15 28 46.38 -07 18 23.8   691 – Steward Observatory, Kitt Peak-Spacewatch MPS 251037
2009 08 17.24361 22 53 30.06 +00 23 47.1 21.5 V 691 – Steward Observatory, Kitt Peak-Spacewatch MPS 291796
2009 08 17.26123 22 53 29.16 +00 23 40.9 21.9 V 691 – Steward Observatory, Kitt Peak-Spacewatch MPS 291796
2009 08 17.27885 22 53 28.34 +00 23 34.8 21.3 V 691 – Steward Observatory, Kitt Peak-Spacewatch MPS 291796
2010 12 01.49598 08 33 15.58 +05 32 19.2 20.3 V G96 – Mt. Lemmon Survey MPS 359129
2010 12 01.50252 08 33 15.76 +05 32 15.9 20.5 V G96 – Mt. Lemmon Survey MPS 359129
2010 12 01.50905 08 33 15.98 +05 32 12.9 20.3 V G96 – Mt. Lemmon Survey MPS 359129
2011 01 04.02067 08 33 27.51 +02 45 26.8 19.4 V J75 – OAM Observatory, La Sagra MPS 363388
2011 01 04.03260 08 33 27.05 +02 45 26.3 19.4 V J75 – OAM Observatory, La Sagra MPS 363388
2011 01 04.04451 08 33 26.62 +02 45 25.8 18.9 V J75 – OAM Observatory, La Sagra MPS 363388
2011 01 04.39075 08 33 14.83 +02 45 11.0 20.0 V 703 – Catalina Sky Survey MPS 363388
2011 01 04.39880 08 33 14.50 +02 45 10.6 19.8 V 703 – Catalina Sky Survey MPS 363388
2011 01 04.40690 08 33 14.22 +02 45 09.6 19.9 V 703 – Catalina Sky Survey MPS 363388
2011 01 04.41508 08 33 13.89 +02 45 10.7 19.9 V 703 – Catalina Sky Survey MPS 363388
2011 01 25.31331 08 16 46.88 +03 39 51.5 19.7 V 703 – Catalina Sky Survey MPS 367127
2011 01 25.32013 08 16 46.48 +03 39 54.2 18.9 V 703 – Catalina Sky Survey MPS 367127
2011 01 25.32693 08 16 46.09 +03 39 56.0 19.5 V 703 – Catalina Sky Survey MPS 367127
2011 01 25.33380 08 16 45.73 +03 39 58.5 19.4 V 703 – Catalina Sky Survey MPS 367127
2011 01 29.29973 08 13 12.72 +04 05 10.5 19.2   704 – Lincoln Laboratory ETS, New Mexico MPS 368586
2011 01 29.31752 08 13 11.70 +04 05 17.4 19.2   704 – Lincoln Laboratory ETS, New Mexico MPS 368586
2011 01 29.33238 08 13 10.89 +04 05 23.0 19.6   704 – Lincoln Laboratory ETS, New Mexico MPS 368586
2011 01 29.36532 08 13 09.14 +04 05 38.8 18.8   704 – Lincoln Laboratory ETS, New Mexico MPS 368586
2011 02 07.23123 08 05 50.38 +05 14 45.6 19.4 V 703 – Catalina Sky Survey MPS 369586
2011 02 07.23748 08 05 50.10 +05 14 48.9 19.4 V 703 – Catalina Sky Survey MPS 369586
2011 02 07.24375 08 05 49.84 +05 14 54.1 19.6 V 703 – Catalina Sky Survey MPS 369586
2013 10 03.42426 02 30 17.669 +10 30 42.69 20.8 w F51 – Pan-STARRS 1, Haleakala MPS 479913
2013 10 03.43956 02 30 17.114 +10 30 35.80 20.9 w F51 – Pan-STARRS 1, Haleakala MPS 479913
2013 10 03.45472 02 30 16.550 +10 30 28.91 20.8 w F51 – Pan-STARRS 1, Haleakala MPS 479913
2013 10 03.46999 02 30 15.974 +10 30 22.02 20.8 w F51 – Pan-STARRS 1, Haleakala MPS 479913
2013 10 25.33403 02 12 37.11 +07 23 12.8 19.7 V G96 – Mt. Lemmon Survey MPS 483491
2013 10 25.34116 02 12 36.67 +07 23 09.0 19.9 V G96 – Mt. Lemmon Survey MPS 483491
2013 10 25.34827 02 12 36.26 +07 23 05.1 20.1 V G96 – Mt. Lemmon Survey MPS 483491
2013 10 25.35540 02 12 35.82 +07 23 01.5 20.0 V G96 – Mt. Lemmon Survey MPS 483491
2013 10 27.28653 02 10 45.13 +07 05 39.4 20.1 r I41 – Palomar Mountain--ZTF MPS 485102
2013 10 27.32250 02 10 42.97 +07 05 19.9 20.1 r I41 – Palomar Mountain--ZTF MPS 485102
2013 10 27.34801 02 10 41.44 +07 05 06.2 20.3 r I41 – Palomar Mountain--ZTF MPS 485102
2013 11 03.25329 02 04 04.28 +06 04 44.8 20.1 r I41 – Palomar Mountain--ZTF MPS 487030
2013 11 03.31291 02 04 00.75 +06 04 14.6 20.1 r I41 – Palomar Mountain--ZTF MPS 487030
2013 11 03.33769 02 03 59.27 +06 04 02.3 20.2 r I41 – Palomar Mountain--ZTF MPS 487030
2013 11 25.24420 01 46 56.607 +03 38 35.05 20.7 w F51 – Pan-STARRS 1, Haleakala MPS 489819
2013 11 25.25926 01 46 56.090 +03 38 31.05 20.7 w F51 – Pan-STARRS 1, Haleakala MPS 489819
2013 11 25.27429 01 46 55.579 +03 38 27.19 20.7 w F51 – Pan-STARRS 1, Haleakala MPS 489819
2013 11 25.28929 01 46 55.064 +03 38 23.19 20.8 w F51 – Pan-STARRS 1, Haleakala MPS 489819
2015 03 24.45881 16 19 51.40 -15 05 29.1 21.4 V G96 – Mt. Lemmon Survey MPS 594926
2015 03 24.46420 16 19 51.54 -15 05 27.6 20.8 V G96 – Mt. Lemmon Survey MPS 594926
2015 03 24.46960 16 19 51.69 -15 05 25.9 20.7 V G96 – Mt. Lemmon Survey MPS 594926
2015 03 24.47499 16 19 51.83 -15 05 24.3 20.5 V G96 – Mt. Lemmon Survey MPS 594926
2015 03 31.58689 16 22 04.015 -14 26 43.44 20.7 w F51 – Pan-STARRS 1, Haleakala MPS 597493
2015 03 31.61269 16 22 04.239 -14 26 34.38 20.7 w F51 – Pan-STARRS 1, Haleakala MPS 597493
2015 03 31.62557 16 22 04.347 -14 26 29.57 20.8 w F51 – Pan-STARRS 1, Haleakala MPS 597493
2015 04 18.40523 16 19 50.73 -12 28 04.3 20.7 V 691 – Steward Observatory, Kitt Peak-Spacewatch MPS 602914
2015 04 18.42483 16 19 50.17 -12 27 55.5 20.8 V 691 – Steward Observatory, Kitt Peak-Spacewatch MPS 602914
2015 04 18.44416 16 19 49.59 -12 27 47.1 20.5 V 691 – Steward Observatory, Kitt Peak-Spacewatch MPS 602914
2015 05 12.67043 16 01 36.64 -09 30 40.9 20.4 R D29 – Purple Mountain Observatory, XuYi Station MPS 607156
2015 05 12.68542 16 01 35.81 -09 30 35.3 20.0 R D29 – Purple Mountain Observatory, XuYi Station MPS 607156
